CW5920 Weather Reports


Display with metric or nautical units.
time (UTC)temp
F
wind
direction
speed
MPH
gust
MPH
rain 1hr
in
rain 24hr
in
rain mn
in
humidity
%
barometer
mb
20260506160516 54 315 7.0 13.0 0.00 0.07 0.07 92 1013.3
20260506155517 54 315 6.0 11.0 0.00 0.07 0.07 92 1013.5
20260506154516 54 338 3.0 8.0 0.02 0.07 0.07 91 1013.4
20260506153536 53 315 4.0 11.0 0.07 0.07 0.07 91 1013.7
20260506152517 53 315 6.0 15.0 0.07 0.07 0.07 91 1013.0
20260506151516 53 315 3.0 9.0 0.07 0.07 0.07 90 1013.6
20260506150517 53 315 3.0 10.0 0.07 0.07 0.07 89 1014.1
20260506145537 53 293 5.0 11.0 0.07 0.07 0.07 88 1014.8
20260506144516 53 315 5.0 12.0 0.05 0.05 0.05 87 1014.1
20260506143536 53 293 1.0 9.0 0.00 0.00 0.00 86 1015.9
20260506142516 53 293 4.0 9.0 0.00 0.00 0.00 86 1015.4
20260506141516 53 293 9.0 16.0 0.00 0.00 0.00 85 1013.8
20260506140517 54 293 8.0 13.0 0.00 0.00 0.00 85 1013.3
20260506135516 54 293 6.0 15.0 0.00 0.00 0.00 84 1013.8
20260506134517 54 293 8.0 15.0 0.00 0.00 0.00 84 1013.6
20260506133517 54 315 9.0 15.0 0.00 0.00 0.00 83 1013.5
20260506132517 55 293 9.0 14.0 0.00 0.00 0.00 82 1013.2
20260506131516 55 293 8.0 15.0 0.00 0.00 0.00 82 1012.9
20260506130516 55 315 8.0 14.0 0.00 0.00 0.00 81 1012.7
20260506125517 55 315 8.0 14.0 0.00 0.00 0.00 81 1012.4
20260506124516 55 315 9.0 15.0 0.00 0.00 0.00 80 1012.2
20260506123516 55 315 7.0 13.0 0.00 0.00 0.00 81 1012.3
20260506122517 56 315 9.0 16.0 0.00 0.00 0.00 81 1012.2
20260506121516 56 315 8.0 13.0 0.00 0.00 0.00 81 1012.1
20260506120516 56 315 8.0 16.0 0.00 0.00 0.00 80 1011.9
20260506115517 56 293 8.0 14.0 0.00 0.00 0.00 80 1012.1
20260506114516 56 315 10.0 16.0 0.00 0.00 0.00 80 1012.0
20260506113516 57 293 8.0 14.0 0.00 0.00 0.00 81 1011.8
20260506112516 57 315 7.0 14.0 0.00 0.00 0.00 81 1011.7
20260506111517 57 293 6.0 11.0 0.00 0.00 0.00 81 1011.6
20260506110537 57 315 7.0 12.0 0.00 0.00 0.00 81 1011.4
20260506105517 57 293 7.0 14.0 0.00 0.00 0.00 81 1011.6
20260506104536 57 315 9.0 14.0 0.00 0.00 0.00 81 1011.1
20260506103517 58 315 7.0 12.0 0.00 0.00 0.00 81 1011.0
20260506102516 58 315 6.0 10.0 0.00 0.00 0.00 81 1010.8
20260506101517 58 315 4.0 9.0 0.00 0.00 0.00 81 1010.6
20260506100516 58 293 6.0 10.0 0.00 0.00 0.00 80 1010.5
20260506095516 58 293 6.0 11.0 0.00 0.00 0.00 80 1010.4
20260506094536 59 293 8.0 14.0 0.00 0.00 0.00 80 1010.2
20260506093516 59 293 7.0 11.0 0.00 0.00 0.00 80 1010.1
20260506092536 59 293 6.0 10.0 0.00 0.00 0.00 80 1010.1
20260506091556 60 315 3.0 8.0 0.00 0.00 0.00 81 1010.0
20260506090517 60 315 5.0 11.0 0.00 0.00 0.00 81 1010.1
20260506085515 60 293 6.0 13.0 0.00 0.00 0.00 80 1009.9
20260506084515 60 315 4.0 9.0 0.00 0.00 0.00 80 1009.9
20260506083515 61 293 6.0 11.0 0.00 0.00 0.00 80 1009.9
20260506082515 61 293 7.0 10.0 0.00 0.00 0.00 80 1009.6
20260506081515 61 315 5.0 10.0 0.00 0.00 0.00 81 1009.6
20260506080515 61 315 6.0 11.0 0.00 0.00 0.00 81 1009.7
20260506072515 62 23 3.0 6.0 0.00 0.00 0.00 81 1009.3
20260506071515 62 338 4.0 6.0 0.00 0.00 0.00 81 1009.3
20260506070555 62 315 5.0 10.0 0.00 0.00 0.00 81 1009.1
20260506062515 62 338 6.0 11.0 0.00 0.00 0.00 81 1009.1
20260506061535 63 338 7.0 12.0 0.00 0.00 0.00 80 1009.1
20260506060515 63 315 7.0 13.0 0.00 0.00 0.00 80 1009.1
20260506050515 66 315 7.0 14.0 0.00 0.00 0.00 78 1009.2
20260506044515 67 315 8.0 13.0 0.00 0.00 0.00 77 1008.8
20260506043517 67 315 6.0 10.0 0.00 0.00 0.00 77 1008.9
20260506042517 67 293 6.0 10.0 0.00 0.00 0.00 77 1009.1
20260506041517 68 315 6.0 11.0 0.00 0.00 0.00 76 1009.0
20260506040557 68 315 8.0 12.0 0.00 0.00 0.00 75 1009.0
20260506035537 68 315 7.0 11.0 0.00 0.00 0.00 75 1008.8
20260506034537 69 293 6.0 12.0 0.00 0.00 0.00 74 1008.5
20260506033515 69 293 8.0 13.0 0.00 0.00 0.00 73 1008.5
20260506032517 69 315 8.0 13.0 0.00 0.00 0.00 73 1008.0
20260506031537 70 315 7.0 11.0 0.00 0.00 0.00 73 1007.7
20260506030517 70 315 7.0 14.0 0.00 0.00 0.00 72 1007.5
20260506025517 71 315 8.0 13.0 0.00 0.00 0.00 72 1007.4
20260506024517 71 315 6.0 11.0 0.00 0.00 0.00 72 1007.3
20260506023517 72 293 9.0 16.0 0.00 0.00 0.00 71 1007.2
20260506022515 73 315 8.0 14.0 0.00 0.00 0.00 71 1006.9
20260506021517 74 315 6.0 12.0 0.00 0.00 0.00 70 1006.8
20260506020517 74 293 6.0 11.0 0.00 0.00 0.00 70 1006.6
20260506015517 75 315 7.0 12.0 0.00 0.00 0.00 69 1006.2
20260506014515 75 315 7.0 12.0 0.00 0.00 0.00 69 1006.0
20260506013517 76 293 6.0 10.0 0.00 0.00 0.00 69 1005.7
20260506012557 76 315 7.0 11.0 0.00 0.00 0.00 67 1005.5
20260506011517 76 293 2.0 5.0 0.00 0.00 0.00 67 1005.2
20260506010517 77 315 4.0 9.0 0.00 0.00 0.00 65 1005.2
20260506005517 77 293 6.0 13.0 0.00 0.00 0.00 65 1005.3
20260506004517 77 315 5.0 8.0 0.00 0.00 0.00 65 1004.7
20260506003557 78 315 5.0 11.0 0.00 0.00 0.00 64 1004.6
20260506002517 78 315 6.0 10.0 0.00 0.00 0.00 64 1004.8
20260506001517 79 315 4.0 11.0 0.00 0.00 0.00 63 1004.8
20260506000537 80 293 6.0 13.0 0.00 0.00 0.00 62 1005.0
20260505235517 81 293 8.0 13.0 0.00 0.00 0.00 61 1004.8
20260505234517 82 315 9.0 14.0 0.00 0.00 0.00 60 1004.5
20260505233537 84 315 7.0 13.0 0.00 0.00 0.00 59 1004.5
20260505232517 85 315 8.0 13.0 0.00 0.00 0.00 56 1004.2
20260505231517 86 293 6.0 10.0 0.00 0.00 0.00 51 1004.1
20260505230517 88 293 7.0 14.0 0.00 0.00 0.00 50 1003.9
20260505225517 90 293 3.0 7.0 0.00 0.00 0.00 53 1003.9
20260505224517 90 270 2.0 6.0 0.00 0.00 0.00 52 1003.8
20260505223517 90 270 3.0 6.0 0.00 0.00 0.00 51 1003.7
20260505222517 91 293 4.0 8.0 0.00 0.00 0.00 51 1003.8
20260505221517 91 293 1.0 8.0 0.00 0.00 0.00 48 1003.6
20260505220535 92 0.0 0.0 0.00 0.00 0.00 48 1003.5
20260505215517 92 0.0 0.0 0.00 0.00 0.00 46 1003.6
20260505214517 92 0.0 0.0 0.00 0.00 0.00 46 1003.7
20260505213537 92 0.0 0.0 0.00 0.00 0.00 50 1003.7
20260505212517 92 0.0 4.0 0.00 0.00 0.00 49 1003.8
20260505211517 91 0.0 1.0 0.00 0.00 0.00 49 1003.9
20260505210517 91 0.0 2.0 0.00 0.00 0.00 49 1004.2
20260505205517 91 0.0 2.0 0.00 0.00 0.00 49 1004.2
20260505204537 90 180 1.0 6.0 0.00 0.00 0.00 50 1004.6
20260505203517 90 0.0 2.0 0.00 0.00 0.00 52 1004.4
20260505202517 90 158 1.0 4.0 0.00 0.00 0.00 53 1004.5
20260505201517 90 203 1.0 5.0 0.00 0.00 0.00 52 1004.8
20260505200517 90 158 2.0 10.0 0.00 0.00 0.00 57 1004.7
20260505194517 88 180 2.0 12.0 0.00 0.00 0.00 60 1004.8
20260505193517 87 203 2.0 9.0 0.00 0.00 0.00 61 1004.8
20260505192517 88 180 4.0 10.0 0.00 0.00 0.00 63 1004.9
20260505191537 87 180 4.0 14.0 0.00 0.00 0.00 61 1004.9
20260505190517 86 158 3.0 9.0 0.00 0.00 0.00 64 1005.0
20260505185517 86 180 2.0 7.0 0.00 0.00 0.00 65 1005.1
20260505184517 85 203 2.0 6.0 0.00 0.00 0.00 65 1005.3
20260505183517 85 180 4.0 11.0 0.00 0.00 0.00 67 1005.4
20260505182537 84 180 3.0 13.0 0.00 0.00 0.00 69 1005.3
20260505181537 84 180 3.0 9.0 0.00 0.00 0.00 68 1005.4
20260505180637 83 158 5.0 11.0 0.00 0.00 0.00 71 1005.4